Regional Weather Roundup
Issued by NWS

Home | Current Version | Previous Version | Text Only | Print | Product List | Glossary Off
Versions: 1 2 3 4 5 6 7 8 9 10 11 12 13 14 15 16 17 18 19 20 21 22 23 24 25 26 27 28 29 30 31 32 33 34 35 36 37 38 39 40 41 42 43 44 45 46 47 48 49 50

843
ASUS44 KJAN 011803
RWRMS

MISSISSIPPI HOURLY WEATHER ROUNDUP
NATIONAL WEATHER SERVICE JACKSON MS
100 PM CDT FRI AUG 01 2014

NOTE: "FAIR: INDICATES FEW OR NO CLOUDS BELOW 12,000 FEET WITH NO
SIGNIFICANT WEATHER AND/OR OBSTRUCTIONS TO VISIBILITY.

MSZ001>002-007>008-010>013-018>021-025>028-034>036-011900-
NORTHWEST MISSISSIPPI

CITY           SKY/WX    TMP DP  RH WIND       PRES   REMARKS
CLARKSDALE     FAIR      82  68  61 NE5       30.05S
CLEVELAND      CLOUDY    77  70  80 E3        30.04S
GREENWOOD      LGT RAIN  76  70  82 CALM      30.04S
6HR MIN TEMP:  70; 6HR MAX TEMP:  80; 6HR PCP:  0.02;

GREENVILLE     CLOUDY    77  69  76 E3        30.03F
6HR MIN TEMP:  71; 6HR MAX TEMP:  77; 6HR PCP:  0.11;

GRENADA        MOCLDY    81  63  54 CALM      30.04S
OLIVE BRANCH   PTSUNNY   81  66  61 NE6       30.07S
OXFORD         FAIR      81  59  47 E7        30.06F
TUNICA         CLEAR     82  63  51 NE7       30.05F
$$

MSZ003>006-009-014>017-022>024-029>033-037>039-011900-
NORTHEAST MISSISSIPPI

CITY           SKY/WX    TMP DP  RH WIND       PRES   REMARKS
BELMONT        MOCLDY    82  68  63 NE5       30.05F
COLUMBUS AFB   MOSUNNY   85  67  55 VRB3      30.03S
6HR MIN TEMP:  68; 6HR MAX TEMP:  85; 6HR PCP: TRACE;

CORINTH        FAIR      84  63  48 N7        30.05F
GOLDN TRIANGLE MOSUNNY   84  64  51 N5        30.04S
STARKVILLE     MOCLDY    82  64  54 N3        30.03F
TUPELO         SUNNY     84  63  49 NE8       30.04F
6HR MIN TEMP:  69; 6HR MAX TEMP:  84;

$$

MSZ040-058-011900-
CENTRAL MISSISSIPPI

CITY           SKY/WX    TMP DP  RH WIND       PRES   REMARKS
JACKSON INTL   LGT RAIN  75  67  76 S3        30.04F
6HR MIN TEMP:  71; 6HR MAX TEMP:  76; 6HR PCP: TRACE;

JACKSON HAWKNS LGT RAIN  75  66  73 MISG      30.05F
6HR MIN TEMP:  72; 6HR MAX TEMP:  76; 6HR PCP:  0.01;

MERIDIAN KEY   PTSUNNY   84  63  49 S6        30.02S
6HR MIN TEMP:  66; 6HR MAX TEMP:  85;

MERIDIAN NAS   PTSUNNY   88  63  43 VRB6      30.02S
6HR MIN TEMP:  64; 6HR MAX TEMP:  88;

RAYMOND        FAIR      75  70  83 SE3       30.05S
VICKSBURG      CLOUDY    73  69  87 SE8       30.03F
6HR MIN TEMP:  70; 6HR MAX TEMP:  73; 6HR PCP:  0.27;

$$

MSZ059>079-011900-
SOUTH MISSISSIPPI

CITY           SKY/WX    TMP DP  RH WIND       PRES   REMARKS
BROOKHAVEN     FAIR      72  70  94 E5        30.06F FOG
COLUMBIA       DRIZZLE   73  72  94 CALM      30.03F
HATTIESBURG    CLOUDY    77  69  76 CALM      30.05S
6HR MIN TEMP:  70; 6HR MAX TEMP:  77; 6HR PCP:  0.13;

MCCOMB         CLOUDY    73  68  84 E3        30.04F
6HR MIN TEMP:  71; 6HR MAX TEMP:  73; 6HR PCP:  0.07;

NATCHEZ        CLOUDY    70  68  94 SE14      30.01F
6HR MIN TEMP:  70; 6HR MAX TEMP:  70; 6HR PCP:  1.29;

PINE BELT      CLOUDY    73  68  83 CALM      30.06F
6HR MIN TEMP:  70; 6HR MAX TEMP:  73; 6HR PCP:  0.07;

$$

MSZ080>082-011900-
COASTAL MISSISSIPPI

CITY           SKY/WX    TMP DP  RH WIND       PRES   REMARKS
BAY ST LOUIS   MOSUNNY  N/A N/A N/A CALM      30.01F
BILOXI         CLOUDY    82  66  59 NE5       30.02S
6HR MIN TEMP:  73; 6HR MAX TEMP:  82; 6HR PCP: TRACE;

PASCAGOULA     CLOUDY    84  67  56 N5        30.02S
6HR MIN TEMP:  71; 6HR MAX TEMP:  85; 6HR PCP: TRACE;

GULFPORT       CLOUDY    86  63  45 NE5       30.01F
6HR MIN TEMP:  77; 6HR MAX TEMP:  87;

$$



USA.gov is the U.S. government's official web portal to all federal, state and local government web resources and services.